Wind_Speed
34 34 32 32 32 32 31 30 31 33 33 31 30 29 28 28 26 24 24 24 24 26 27 27 27 27 29 33 35 32 30 30 27 25 23 25 26 27 27 28 30 33 36 38 39 41 43 44 44 41 39 40 40 39 37 37 37 37 37 37 38 37 36 35 33 32 31 29 28 27 25 24 23 22 21 19 17 15 14 15 17 20 23 26 29
34 34 33 33 33 32 31 31 33 34 33 32 30 28 28 28 26 24 25 25 24 25 26 27 28 28 30 34 33 29 27 26 25 23 23 25 26 28 29 29 31 34 37 38 39 41 43 44 42 39 39 40 40 38 37 37 36 36 36 37 37 36 34 33 31 29 28 27 26 24 22 21 20 19 18 16 15 14 14 15 18 21 24 28 31
34 34 33 35 34 33 32 33 35 35 34 33 30 27 27 28 27 25 25 25 24 25 27 28 28 29 32 34 31 27 25 24 23 22 23 25 26 28 30 30 31 34 36 37 39 41 43 43 41 38 39 40 38 36 36 36 35 35 36 37 36 35 32 30 28 27 26 25 24 22 20 19 18 17 16 15 14 13 14 16 18 21 25 30 33
35 34 34 36 35 33 33 34 36 36 34 33 30 27 28 28 27 26 26 26 25 26 27 28 29 31 33 31 27 24 22 22 22 23 24 26 27 28 30 30 31 34 35 37 40 42 42 41 39 38 39 39 37 36 35 35 34 34 35 36 35 33 30 28 26 25 24 23 22 19 18 17 17 16 15 14 13 13 14 15 18 21 27 31 34
35 34 35 37 36 35 34 35 37 37 35 33 31 29 28 28 27 26 27 26 26 27 27 28 30 32 31 25 21 20 20 20 22 23 25 27 28 29 30 31 32 34 35 38 40 41 41 39 37 38 39 38 36 35 34 34 34 34 34 35 35 32 29 27 25 24 23 21 19 17 16 16 16 15 14 13 13 14 14 16 18 23 29 32 35
36 36 36 37 37 36 35 36 38 37 36 34 31 29 29 28 27 27 28 26 26 27 28 29 30 30 24 19 19 18 18 21 23 24 26 28 29 30 32 33 34 35 36 39 40 40 39 37 36 38 38 37 35 35 34 34 34 34 34 34 34 31 28 26 24 23 21 19 17 15 16 16 15 14 15 15 14 14 16 18 22 26 30 32 35
36 37 37 37 38 37 36 37 38 37 36 34 32 30 29 29 28 28 28 26 26 27 27 28 28 25 21 19 19 18 19 24 26 27 28 29 30 31 33 34 34 36 37 39 39 38 36 35 37 38 37 36 35 34 34 34 35 34 33 33 33 30 28 26 24 21 19 16 15 16 16 15 15 16 17 16 15 16 19 22 25 28 30 32 34
37 38 38 38 38 38 37 37 38 37 36 34 32 31 30 30 29 28 27 25 26 25 25 26 26 23 21 20 20 20 23 26 28 30 30 30 30 31 33 34 35 36 37 38 37 35 34 35 37 36 35 35 34 34 34 34 35 34 32 32 32 30 28 26 22 18 16 15 15 15 15 15 17 18 18 16 16 19 22 24 27 28 30 32 34
38 39 40 39 39 39 37 36 37 38 36 34 33 33 32 31 30 28 26 25 25 24 25 27 26 23 23 24 24 24 25 26 28 30 29 29 30 31 33 34 36 37 37 35 34 32 33 35 36 35 34 33 33 33 34 34 33 32 31 31 30 28 26 23 19 16 14 15 15 15 15 17 19 19 18 18 19 22 24 26 27 28 30 31 33
36 38 40 40 39 38 37 36 36 37 36 35 34 33 33 32 31 30 29 26 24 23 25 26 25 24 24 25 24 24 25 26 28 28 27 27 29 31 33 36 37 36 34 32 31 31 33 35 35 33 32 32 32 33 33 32 31 31 31 30 27 25 22 19 16 14 14 15 15 16 18 19 20 20 19 20 21 23 24 25 27 28 29 30 32
36 38 39 40 39 36 35 34 34 35 35 35 34 34 34 33 32 32 31 26 23 23 24 25 25 24 23 22 23 24 25 26 27 27 26 26 28 31 33 36 36 32 29 29 29 31 33 35 33 31 31 31 31 32 31 31 30 31 30 27 24 22 19 17 15 15 15 16 16 17 19 20 21 20 20 20 21 22 22 24 25 27 28 30 32
36 38 39 39 38 36 34 33 33 34 35 35 35 34 33 33 33 32 30 26 24 24 24 25 27 25 23 22 24 25 26 27 27 26 27 28 29 30 32 33 32 28 26 27 28 31 34 34 32 30 30 30 31 31 30 30 30 31 29 25 22 20 18 16 15 16 16 16 17 19 21 21 21 20 20 20 21 21 21 22 24 26 28 30 32
36 38 38 38 36 34 35 34 35 35 37 37 36 35 34 35 35 32 29 27 26 26 25 25 27 26 25 24 25 25 26 27 26 26 27 29 29 28 29 29 26 25 26 27 28 31 34 33 30 29 29 30 31 29 29 30 30 30 26 23 21 19 17 16 16 17 17 17 19 20 21 22 22 22 22 22 21 21 21 22 23 25 28 30 33
36 37 36 35 35 34 36 37 37 37 38 38 37 36 36 38 38 34 31 29 28 28 26 24 25 26 26 26 25 25 26 26 26 26 27 29 29 27 27 26 22 23 25 26 28 31 33 31 29 29 28 30 29 28 29 29 29 28 24 22 20 17 17 17 17 17 17 18 19 21 22 23 24 25 25 25 24 24 23 23 24 26 28 31 34
36 37 36 35 35 35 38 40 40 40 40 40 38 37 37 38 38 36 34 31 30 31 28 24 24 26 26 26 25 24 25 25 25 25 26 29 29 28 27 24 21 22 25 26 28 31 31 29 29 28 28 29 28 27 28 28 28 26 22 20 18 16 16 16 17 17 17 18 19 20 22 23 25 27 28 28 28 27 26 25 25 27 29 32 35
37 39 40 38 36 36 40 42 42 40 39 40 40 38 39 38 36 35 35 33 32 32 28 24 24 25 24 23 23 24 25 24 24 25 26 28 29 28 27 23 20 22 24 26 29 30 29 28 28 28 27 27 26 26 27 27 27 24 20 18 16 16 16 16 17 16 16 17 18 19 21 23 25 27 28 29 30 30 29 28 27 28 31 34 36
39 41 44 43 40 40 42 44 44 40 36 38 41 41 40 40 38 36 36 35 34 33 30 26 24 23 21 21 22 24 24 24 24 25 25 26 28 28 26 23 21 23 25 26 29 29 27 26 27 27 27 26 25 25 27 27 26 22 18 16 15 15 16 16 16 15 14 15 16 18 20 22 25 26 28 30 31 33 32 31 29 30 33 35 37
43 44 46 46 45 44 43 44 45 43 38 35 39 42 42 41 41 39 38 36 35 34 31 28 25 22 21 21 22 23 24 24 25 24 24 25 26 26 25 23 22 24 25 26 28 27 25 25 25 26 26 24 23 24 25 25 24 20 16 15 14 14 15 15 14 13 13 13 15 17 19 22 24 26 29 30 32 33 34 33 32 33 34 35 36
46 46 46 46 46 45 44 44 45 44 41 36 36 40 42 41 40 41 39 37 35 34 32 30 27 23 22 22 22 24 24 25 25 23 23 23 23 24 23 22 23 24 25 26 27 25 24 24 24 24 24 23 22 23 24 24 22 18 15 15 14 13 13 13 13 13 12 13 14 17 19 22 24 27 29 31 32 32 33 34 33 34 35 35 35
48 47 47 47 46 46 45 45 44 42 42 41 38 38 40 42 41 41 41 38 36 35 34 33 29 24 23 22 23 24 25 26 25 23 22 22 22 22 22 22 22 23 24 26 25 23 23 23 23 22 21 21 22 23 23 22 20 17 15 15 14 13 13 12 12 12 12 13 14 17 19 22 25 27 29 30 31 31 32 33 33 34 34 34 35
51 49 48 49 48 47 46 44 43 41 41 42 41 39 39 41 41 41 42 40 39 38 36 35 29 25 23 23 24 25 26 27 25 23 22 21 21 21 21 22 21 22 23 25 24 22 22 23 23 21 19 20 21 22 23 21 19 17 15 14 14 14 13 13 13 13 14 14 16 18 20 23 26 28 29 29 29 29 30 31 32 32 32 33 34
54 52 51 51 49 48 46 44 43 42 42 42 43 42 41 40 41 42 43 43 43 41 38 35 28 23 22 23 24 25 27 28 26 24 22 21 21 21 22 22 21 21 22 23 22 21 21 22 23 21 19 19 20 21 21 19 18 16 15 15 15 14 14 15 15 16 16 17 18 20 22 24 26 27 27 27 27 26 27 29 30 30 31 33 35
57 56 54 52 51 49 48 47 45 43 43 43 43 43 43 41 40 42 44 45 45 42 38 34 28 23 22 23 24 26 27 28 27 25 22 22 22 22 22 22 21 21 21 20 20 19 20 21 22 20 18 18 19 20 18 17 16 16 15 15 15 15 15 16 17 18 19 19 19 21 23 24 25 25 25 25 24 24 26 28 29 29 31 33 36
60 59 57 55 54 52 51 49 48 46 44 43 44 43 41 41 41 42 43 44 43 39 35 32 30 25 23 25 26 26 27 28 27 25 22 22 23 23 23 23 21 20 19 18 18 17 19 20 19 17 17 17 17 17 16 15 15 15 15 16 16 16 16 17 18 19 20 21 21 22 23 23 23 23 23 22 23 24 26 27 28 30 32 34 36
62 62 61 59 58 55 54 53 51 48 44 42 44 43 40 40 41 41 43 44 43 40 36 33 32 29 26 27 28 27 27 28 27 24 21 21 22 23 23 22 21 19 18 16 16 16 17 18 16 14 14 15 15 15 14 15 15 15 16 16 16 17 17 18 19 21 22 23 23 22 22 22 22 21 21 22 23 25 26 27 28 30 32 34 36
64 65 66 65 62 59 57 56 54 50 46 44 44 43 43 43 43 41 41 42 43 43 40 36 32 30 28 29 29 28 28 29 28 24 21 20 20 21 21 21 19 17 16 15 15 15 16 16 13 10 11 13 14 13 14 15 15 16 16 16 17 17 18 18 20 22 23 24 23 22 21 21 20 20 21 22 23 24 25 26 28 29 31 33 35
67 67 69 68 65 62 58 56 55 52 48 48 46 45 46 46 44 40 38 40 43 45 43 38 34 31 30 30 30 29 28 29 28 24 21 19 18 18 19 18 16 15 15 15 15 15 14 14 11 8 8 10 11 11 12 14 15 16 16 16 17 18 19 20 21 23 24 24 23 22 20 19 19 20 21 22 23 23 24 25 27 29 31 33 36
70 69 70 70 67 63 59 57 55 52 49 48 46 47 48 45 41 39 38 39 41 42 41 39 36 32 30 31 30 30 30 30 29 24 20 17 16 16 16 14 12 13 14 14 15 15 14 13 10 7 6 7 9 9 10 12 14 15 15 15 16 18 19 21 23 24 25 25 24 21 19 19 19 20 21 22 22 22 24 25 27 29 31 33 36
74 73 72 72 70 66 63 61 58 54 52 50 48 51 50 45 43 41 39 37 37 37 37 38 35 31 31 31 31 31 32 31 28 23 19 16 14 14 12 9 9 12 14 15 16 16 15 13 10 7 6 6 6 7 8 10 12 12 13 13 15 18 20 21 22 24 26 26 24 21 19 18 19 20 21 21 21 22 24 26 28 30 32 35 37
76 75 73 73 73 70 66 65 62 59 57 55 54 55 51 46 45 43 39 36 35 34 34 36 35 32 31 32 31 32 33 31 26 21 18 16 14 13 10 7 8 12 15 17 17 16 15 14 11 9 7 6 5 5 6 8 10 10 10 12 14 17 19 21 22 24 25 26 24 21 18 18 19 19 20 21 21 23 24 26 28 31 33 35 37
77 76 75 73 74 74 70 67 65 63 61 60 58 56 52 49 47 43 39 38 38 36 33 34 35 34 34 34 33 33 33 30 26 22 20 19 18 16 12 9 12 15 17 18 18 17 16 14 12 10 9 7 6 5 5 6 8 9 10 12 14 15 18 21 23 24 24 24 24 22 19 17 17 18 19 20 22 23 25 27 29 32 34 36 38
80 79 77 74 74 75 74 71 69 65 63 63 61 57 53 52 50 46 40 39 41 41 35 32 33 34 36 36 35 35 34 31 27 25 24 24 23 22 19 17 17 19 19 20 19 18 17 15 13 11 11 10 8 7 6 6 7 8 10 12 13 14 16 19 22 24 25 24 24 23 21 18 17 16 18 20 21 23 26 28 31 33 35 37 39
83 83 81 78 75 75 75 74 73 68 64 65 63 59 56 54 52 49 43 40 43 44 40 36 34 34 36 37 37 36 35 32 31 29 28 27 26 26 25 25 24 24 22 21 21 20 19 17 15 12 12 13 12 10 8 7 7 8 9 11 12 13 14 17 20 24 25 25 24 23 23 21 19 17 17 19 21 23 26 30 32 34 36 38 39
85 85 84 81 77 75 75 76 75 71 66 66 64 60 57 57 56 54 46 42 44 45 42 40 38 35 34 36 38 38 36 35 34 33 31 30 29 28 28 28 28 28 26 24 23 22 21 20 18 16 14 15 15 13 12 10 8 7 9 10 12 14 15 17 20 23 25 25 24 23 23 23 22 21 20 21 22 24 27 30 33 35 37 39 40
89 87 86 85 81 78 78 79 79 74 69 68 66 62 59 59 59 59 51 44 44 44 42 42 42 39 36 36 38 39 38 37 35 35 34 33 32 32 30 29 28 28 28 27 25 24 23 23 22 20 17 17 17 16 15 13 10 8 8 10 12 15 17 19 21 23 24 24 23 23 22 22 23 23 23 24 25 26 28 31 34 36 38 40 41
91 91 89 87 85 82 81 82 82 79 75 73 70 66 63 61 60 60 53 46 45 45 43 43 42 41 40 39 39 39 38 36 35 36 36 36 36 35 33 32 32 31 30 29 27 26 25 25 25 24 21 19 19 19 18 15 13 11 10 11 13 16 18 20 22 23 24 24 24 22 21 21 22 23 24 25 27 28 30 31 34 36 39 40 41
91 93 92 89 88 86 84 84 84 83 80 76 73 69 67 64 63 62 56 50 49 49 48 46 44 43 43 42 42 41 38 36 35 36 36 37 38 38 37 36 36 35 33 32 31 29 28 27 26 27 26 23 21 22 22 20 18 15 13 14 15 16 19 21 23 24 24 25 24 23 20 20 21 22 23 24 26 29 30 32 33 36 38 39 40
92 93 94 92 91 89 87 86 86 85 83 79 75 73 71 68 66 64 59 54 53 53 53 51 48 46 46 46 46 44 41 39 38 37 36 36 37 38 39 39 38 37 35 35 34 31 30 29 28 28 29 27 25 24 24 24 24 23 20 19 18 18 18 20 22 24 24 24 24 22 20 20 21 22 24 25 26 28 30 31 33 35 37 38 39
95 95 95 95 94 92 90 88 88 87 85 81 78 76 75 72 68 66 63 58 56 56 56 54 52 49 49 50 50 47 44 44 44 42 39 39 38 39 40 40 39 37 37 37 36 33 31 30 30 29 30 30 28 25 24 25 26 27 26 24 23 21 19 19 21 22 23 23 23 22 21 21 22 23 25 26 28 29 30 32 33 35 37 38 38
99 98 97 97 96 95 93 91 90 89 88 84 81 80 78 75 72 69 67 62 59 59 59 57 54 52 52 53 53 51 48 47 47 44 42 40 40 41 42 41 39 38 38 39 38 36 34 32 31 31 31 31 30 28 27 26 26 27 28 27 25 24 21 19 19 20 21 22 22 23 23 23 24 25 26 27 28 29 31 32 33 35 36 36 36
102 101 100 99 99 98 97 94 92 91 90 87 85 83 81 79 76 72 69 66 62 60 61 60 56 55 55 56 56 55 53 52 50 47 44 41 39 40 43 44 43 41 40 40 38 37 36 34 33 32 32 33 33 31 30 29 27 26 28 29 28 25 22 19 18 18 20 21 22 23 24 25 26 27 27 28 29 30 31 33 33 34 35 35 34
104 104 103 102 101 100 100 98 96 94 92 90 88 87 85 83 81 77 72 69 66 63 63 63 60 58 58 58 58 57 56 56 54 51 48 46 43 42 42 44 45 46 44 41 39 38 38 37 35 34 33 35 36 35 32 31 29 28 29 29 29 27 23 20 18 17 18 20 21 23 24 25 27 28 28 30 31 32 33 34 34 34 34 35 34
104 105 104 104 104 103 103 102 100 97 95 93 91 91 89 87 84 81 77 73 70 67 64 64 64 63 61 60 60 60 60 59 58 55 52 51 49 48 46 43 43 46 47 45 42 39 40 40 38 37 36 37 39 38 35 34 32 31 30 30 29 27 24 21 19 18 18 19 21 22 24 26 27 29 29 30 32 34 35 35 35 35 34 35 36
107 105 105 105 105 105 105 105 104 102 100 97 94 93 93 91 88 85 82 77 75 72 67 65 66 66 65 63 62 61 61 61 61 59 55 53 52 52 51 49 45 44 47 49 47 43 41 41 42 40 38 39 40 39 38 37 33 31 32 32 28 26 25 23 21 19 19 21 22 23 24 26 27 29 30 31 32 34 35 35 35 35 35 35 37
112 109 107 106 106 107 107 107 107 106 104 102 99 96 95 95 93 90 87 83 79 76 71 68 68 68 66 64 62 60 60 60 61 60 57 55 54 54 53 53 51 48 46 48 51 49 46 44 44 43 42 42 42 42 41 38 34 33 34 32 27 25 26 26 23 22 22 24 26 27 27 28 29 30 30 30 31 32 34 35 34 34 34 34 36
117 115 111 108 107 108 109 109 108 109 109 107 105 101 99 99 98 95 92 89 84 80 75 71 70 70 69 67 64 61 59 59 60 60 59 57 56 55 54 53 53 52 49 47 49 52 52 50 48 48 47 46 45 44 43 39 36 35 34 30 26 26 27 28 26 24 24 26 29 30 30 30 31 32 31 30 30 30 31 32 34 34 34 34 35
120 119 117 113 110 109 110 111 110 110 111 110 109 106 104 103 102 100 97 95 91 86 80 75 72 71 72 72 70 65 62 60 60 61 62 61 59 58 57 54 53 53 52 50 50 52 55 55 53 52 51 49 47 46 44 40 38 36 34 30 28 29 31 31 28 26 25 26 29 31 32 32 33 34 32 30 30 30 29 31 32 33 34 34 35
123 122 122 119 115 112 111 111 112 112 112 112 111 110 109 107 105 103 101 99 97 93 87 82 76 73 73 74 74 70 66 62 61 61 63 65 63 61 59 57 55 54 54 55 56 56 57 59 58 56 55 54 51 48 46 43 40 38 35 32 33 37 38 35 33 32 29 28 30 32 33 33 34 34 34 32 31 29 28 30 31 32 34 34 35
125 125 125 123 120 117 114 113 113 113 114 114 112 111 111 110 108 105 104 103 101 97 93 89 84 80 79 78 77 74 70 67 65 63 61 62 63 64 64 62 59 56 56 57 60 60 59 60 61 60 58 57 54 50 48 45 43 40 37 37 40 43 42 40 40 39 36 35 35 34 34 35 35 35 35 34 32 29 27 28 31 33 33 33 33
125 127 128 127 124 120 118 116 115 114 115 115 114 113 112 112 110 108 106 104 103 100 97 94 91 88 88 87 84 80 76 73 70 66 61 59 60 64 68 68 63 58 58 60 61 60 58 59 60 60 59 57 55 52 49 48 46 43 39 40 43 45 45 45 46 44 42 43 42 37 36 39 38 36 36 36 34 30 28 28 32 35 34 33 32
124 126 128 129 127 124 121 120 119 117 117 117 116 114 114 113 112 110 108 106 104 103 101 99 96 93 93 93 91 87 83 80 78 74 68 62 58 58 62 66 63 59 59 62 63 60 55 53 55 57 58 58 57 54 52 51 50 47 42 42 43 44 46 49 50 48 47 50 50 43 39 42 42 39 38 38 37 34 31 30 33 36 35 34 34
Wind_Direction
233 229 224 224 224 221 220 218 219 223 225 226 229 234 241 246 248 254 260 261 265 269 271 272 272 276 285 296 302 297 286 282 283 284 289 297 302 306 306 304 309 314 315 315 318 320 321 324 327 329 330 332 332 333 334 334 334 334 334 333 332 330 328 327 326 325 324 323 323 324 325 325 326 328 333 339 346 352 356 360 5 8 7 4 360
233 228 223 222 222 218 216 216 219 222 224 225 228 233 239 243 246 252 257 258 262 266 269 270 271 277 289 300 301 291 281 279 280 281 288 295 300 304 305 304 307 312 313 314 318 320 321 324 326 328 330 332 332 333 334 333 334 334 334 333 333 331 330 328 327 326 326 326 327 329 329 328 330 337 344 349 355 1 5 9 11 9 6 1 358
233 229 224 223 221 216 215 216 219 222 222 223 226 231 238 240 244 251 254 256 258 262 267 269 272 279 290 298 295 284 278 278 280 283 288 293 297 303 305 305 306 309 310 314 317 319 321 323 326 327 329 331 332 333 333 333 335 334 334 334 334 333 331 329 328 328 328 329 331 331 330 333 341 349 353 356 3 10 12 12 9 6 2 357 355
232 229 224 224 221 215 216 218 219 220 220 221 223 230 237 239 242 250 252 252 255 260 266 271 277 282 290 294 285 278 279 280 283 285 287 291 295 302 305 304 305 307 310 314 317 318 320 323 325 327 329 331 332 333 332 334 334 333 334 335 335 334 332 330 329 329 330 333 333 333 336 345 353 355 357 3 10 15 12 7 3 0 357 354 354
230 228 224 224 221 215 216 218 217 217 218 220 222 228 236 238 242 249 251 251 253 259 266 273 281 286 289 285 272 274 282 285 287 288 289 291 294 301 303 302 303 306 310 314 316 318 320 322 324 327 329 330 332 332 332 333 332 331 333 335 335 334 332 329 328 330 333 335 336 339 349 357 358 358 3 10 15 13 5 358 355 354 353 352 353
227 227 224 223 221 217 216 216 216 216 218 220 221 228 235 237 242 247 248 249 252 259 266 275 283 288 284 269 260 269 282 289 292 294 295 294 295 298 300 302 304 307 310 314 315 317 319 322 324 327 329 330 331 332 332 332 331 331 332 334 335 334 331 329 329 332 335 338 344 352 360 1 1 4 12 16 14 5 356 352 351 350 350 351 353
223 225 225 223 221 220 218 215 216 217 221 222 223 229 234 236 240 243 245 249 253 260 268 276 283 282 272 258 257 265 278 288 293 298 300 298 295 295 299 302 304 307 311 314 314 315 318 322 325 328 329 330 331 331 332 332 331 331 332 334 335 333 330 329 331 335 340 347 355 2 5 6 8 14 18 16 8 358 354 352 351 351 351 352 352
218 221 223 222 221 221 220 217 217 220 223 225 227 231 233 236 240 240 242 248 254 260 267 275 279 273 265 263 266 271 278 285 292 298 301 299 297 296 298 302 304 307 311 312 311 314 318 322 326 328 329 330 331 332 334 332 332 333 334 336 335 332 330 331 336 341 350 359 4 8 11 14 18 20 18 12 2 357 356 354 352 352 352 352 352
219 217 218 219 220 221 222 219 219 222 226 228 230 232 231 236 239 236 240 249 255 261 266 274 275 266 266 273 274 276 278 284 292 297 299 299 299 299 300 302 302 306 309 308 309 313 318 322 326 329 330 331 332 335 335 333 334 336 338 338 336 333 333 336 343 352 2 10 12 15 19 21 22 20 16 7 360 357 357 354 353 353 353 352 351
223 220 217 216 218 221 221 221 223 226 229 231 232 231 231 237 239 237 242 248 252 259 265 271 270 263 266 271 271 273 278 284 291 295 296 297 298 300 303 303 302 305 307 305 308 314 318 323 327 330 331 332 335 337 336 335 337 340 342 340 338 337 339 346 356 6 14 19 20 22 24 24 22 18 12 5 0 359 358 356 355 354 353 351 349
223 223 220 215 216 220 221 223 227 231 232 233 233 232 234 239 241 241 243 244 247 256 265 268 264 259 262 267 271 275 280 284 288 291 292 293 294 297 300 303 304 306 305 303 309 315 319 324 328 331 332 334 337 338 337 337 340 345 346 344 344 346 352 1 11 18 25 27 26 25 25 24 21 17 12 7 2 1 359 358 356 355 352 350 350
219 221 221 217 217 221 222 222 226 230 232 232 232 233 236 241 242 240 240 240 247 255 264 266 258 255 260 268 274 279 282 283 284 286 289 290 290 292 296 301 306 306 302 304 311 317 321 325 328 331 332 336 338 338 337 339 344 349 350 349 353 358 6 16 22 27 32 32 29 28 28 27 24 19 14 10 5 2 1 0 358 355 353 352 353
217 216 217 217 218 222 223 221 223 226 229 233 233 234 236 240 240 239 239 244 250 255 261 263 256 255 261 267 274 281 284 283 281 282 288 290 289 292 297 301 303 302 300 305 312 318 322 325 327 330 333 338 338 337 338 341 347 354 353 354 0 8 18 24 29 33 36 36 35 35 34 31 27 23 18 13 7 4 4 2 359 356 355 355 356
216 212 213 215 216 221 224 222 222 223 226 232 236 236 235 236 238 241 246 249 253 256 260 262 255 254 260 267 273 281 284 283 282 283 287 291 292 295 299 300 299 295 297 305 313 319 322 324 327 330 335 339 337 337 340 343 351 357 355 358 6 16 24 28 32 37 40 41 41 40 37 34 31 26 22 17 11 7 5 3 0 358 357 357 358
214 210 210 215 215 220 227 225 225 226 226 228 234 237 235 235 238 244 249 252 253 256 261 261 255 253 260 267 273 277 280 283 285 285 288 293 296 298 299 299 294 291 297 306 313 320 322 323 326 331 336 340 338 338 342 347 355 359 357 360 9 19 24 28 33 39 44 45 43 39 36 32 29 26 23 18 14 10 7 4 0 358 358 359 1
210 208 208 212 213 217 227 231 233 237 237 234 234 236 235 236 241 246 249 250 251 254 259 261 254 254 262 270 275 276 276 280 283 285 289 294 298 299 298 296 292 293 301 308 314 320 322 322 326 330 337 341 339 340 346 350 357 1 358 1 11 18 22 27 33 40 45 43 39 34 29 27 25 22 19 17 14 12 9 4 0 358 358 1 5
208 208 208 209 208 210 222 233 238 244 250 245 238 235 235 237 243 247 247 246 248 251 257 261 257 257 267 275 279 277 275 276 277 281 287 293 298 298 296 295 294 298 304 309 315 321 322 322 325 330 337 341 341 344 349 352 357 2 360 1 10 16 20 25 30 37 40 37 31 26 23 21 20 17 14 12 11 10 8 5 1 359 1 5 10
209 208 210 210 208 206 215 229 236 241 249 251 243 236 234 237 241 244 244 244 247 251 257 262 262 263 271 276 278 274 271 270 270 275 284 290 296 296 293 294 295 300 305 308 315 321 321 322 326 331 337 340 342 347 350 350 356 3 2 2 9 15 19 21 24 30 32 27 20 16 15 14 13 10 7 7 7 7 5 4 1 1 6 10 13
212 209 210 211 209 206 209 222 232 238 244 249 246 239 234 234 238 242 242 241 245 251 257 262 263 263 268 272 272 267 264 265 265 272 281 287 292 292 290 291 294 299 303 308 316 320 320 322 326 333 338 338 342 350 350 349 356 4 5 4 8 14 16 17 19 21 20 16 9 6 6 6 5 2 1 2 4 4 2 2 2 5 10 13 13
215 211 210 211 211 209 209 215 225 233 239 244 248 246 237 231 234 240 239 239 244 248 255 261 261 260 264 268 266 261 259 261 264 270 277 284 290 289 286 286 290 296 301 308 316 319 319 322 327 334 338 337 343 351 351 351 357 5 9 7 9 13 14 14 14 12 8 6 2 358 359 359 359 357 356 358 1 2 1 2 5 9 12 14 14
215 213 211 212 213 214 212 214 220 228 234 239 245 247 241 234 233 237 238 239 243 246 253 260 258 255 261 266 263 258 258 260 264 269 275 283 290 288 283 283 287 292 299 307 314 317 317 321 327 334 338 339 346 351 351 354 359 7 14 13 11 12 11 10 8 5 1 358 356 355 355 355 354 354 354 355 359 2 2 4 9 12 13 14 14
215 214 213 212 213 215 214 216 219 225 230 235 240 243 242 239 237 237 238 240 244 247 252 257 253 249 259 267 264 259 258 261 265 270 277 286 291 288 283 283 286 291 298 305 311 314 316 320 327 332 336 342 348 350 351 356 1 7 16 17 15 13 10 7 4 1 358 355 353 351 352 352 351 351 351 355 1 4 4 8 12 14 14 13 12
215 216 214 213 213 214 216 217 220 223 227 232 237 239 241 244 244 242 242 243 246 250 252 253 250 249 261 268 264 259 259 262 266 273 282 290 293 290 288 288 290 292 297 302 307 311 314 319 326 329 334 344 350 350 354 3 4 7 17 20 19 17 12 7 3 359 356 352 350 349 349 349 348 348 351 358 6 7 8 12 14 14 13 12 11
216 216 215 214 214 215 216 218 220 222 226 230 235 238 241 247 250 249 248 247 249 252 251 252 251 253 262 265 262 259 259 260 265 272 283 291 295 295 292 292 294 295 297 301 304 308 312 319 325 327 333 345 351 353 2 12 12 13 19 23 25 22 17 12 6 3 359 355 352 349 350 350 350 352 358 7 12 12 12 14 14 12 11 10 10
216 215 216 216 214 214 215 217 219 220 223 229 235 238 240 246 250 252 252 250 249 251 251 252 252 254 260 261 258 257 256 257 262 269 278 287 293 295 294 293 295 297 301 303 305 307 312 319 325 327 333 344 350 358 12 20 21 22 24 29 32 29 24 19 14 11 8 4 358 355 356 357 358 2 11 17 18 16 15 14 13 10 9 9 10
216 216 217 217 215 214 214 216 217 218 219 223 229 234 237 243 247 250 252 251 249 249 249 251 251 253 258 257 255 253 252 254 258 263 271 279 287 292 293 292 294 299 302 305 308 311 315 319 323 326 334 344 349 2 21 26 27 29 30 35 37 33 29 24 21 18 15 11 7 4 5 6 9 16 22 24 21 18 17 14 12 10 9 8 8
217 216 217 218 218 217 215 217 218 217 219 223 227 233 237 241 244 246 250 251 249 248 249 250 249 249 252 251 249 248 246 248 251 256 266 274 280 287 289 289 297 305 306 308 314 318 320 318 318 320 330 345 351 3 24 31 33 34 35 38 39 36 32 27 25 23 20 18 15 14 14 16 21 25 26 26 23 19 16 13 11 10 8 7 7
217 216 217 218 220 220 218 219 220 219 221 226 230 234 237 238 239 243 249 251 251 250 250 249 247 245 243 242 243 242 240 242 245 249 259 269 275 280 282 286 302 318 318 315 320 325 326 320 313 310 322 340 351 4 22 33 37 38 37 38 36 32 29 26 24 23 22 23 22 23 24 25 26 26 25 25 22 18 14 10 9 8 7 6 6
218 217 216 217 219 221 220 219 220 220 221 224 227 230 232 233 235 241 248 251 252 253 251 250 247 239 235 238 241 239 238 239 241 243 250 259 268 271 271 283 314 333 331 324 324 327 330 325 310 296 307 326 342 359 16 29 37 40 39 34 28 23 20 20 22 22 22 23 25 27 27 26 22 20 20 20 18 14 11 7 6 6 6 6 6
218 218 217 217 219 221 222 222 221 220 222 223 226 229 230 231 234 239 245 247 248 249 247 246 245 237 234 240 242 239 237 238 237 238 244 251 261 264 260 278 312 327 330 328 328 327 329 328 311 286 289 307 320 343 4 20 28 30 29 26 20 16 15 16 19 19 18 20 23 24 22 20 16 13 13 13 12 10 7 5 4 4 5 5 5
218 219 219 218 219 221 223 225 224 223 223 224 227 230 231 232 234 237 242 243 243 245 243 241 240 236 236 241 241 236 234 233 232 237 246 253 260 262 259 276 298 306 312 316 322 326 327 327 314 287 279 290 299 313 335 0 13 11 8 9 12 13 13 13 13 14 13 13 16 17 14 11 8 6 5 5 4 4 4 3 2 2 2 1 2
218 218 219 218 219 220 222 225 227 226 225 225 226 228 230 232 234 237 240 240 239 241 241 240 238 235 235 238 237 231 228 230 233 238 243 250 257 262 263 274 287 294 298 300 306 317 323 325 318 292 275 280 287 290 306 328 345 352 353 355 1 7 12 13 11 9 7 5 6 8 8 4 0 358 359 358 358 358 358 359 358 358 357 357 358
218 218 218 218 218 220 221 224 227 227 225 225 225 225 228 231 234 237 238 237 237 237 238 238 238 235 233 234 231 225 223 229 237 239 238 242 250 256 261 269 277 284 289 290 294 303 313 319 320 303 276 271 278 282 287 302 320 335 345 348 352 357 4 8 6 4 1 359 356 356 359 359 356 352 350 351 352 352 353 353 353 354 354 354 355
217 217 217 218 218 219 220 222 225 225 223 224 225 226 228 230 234 239 239 236 235 235 234 234 235 233 230 229 227 223 223 230 239 241 240 242 246 250 255 263 270 276 280 283 285 292 301 307 314 313 291 271 269 276 281 288 302 323 338 343 342 344 347 350 351 352 352 353 350 347 349 353 353 351 347 346 346 347 348 349 349 350 351 351 352
218 218 217 217 217 218 219 221 222 222 221 221 223 224 227 230 235 239 240 238 235 232 231 231 230 229 229 229 228 225 226 231 236 241 244 246 248 250 251 256 262 268 272 274 277 284 291 295 301 308 304 285 271 271 277 285 292 305 320 328 329 330 331 334 338 341 343 346 345 341 340 344 348 349 347 345 344 345 346 346 347 348 349 349 350
219 219 218 217 217 218 219 221 222 222 220 220 221 223 225 228 231 234 236 237 236 232 230 229 228 226 227 230 232 230 230 233 236 238 242 245 248 251 251 252 255 259 263 267 270 276 282 286 291 296 301 298 285 275 275 281 287 293 302 311 315 317 320 324 329 334 338 340 340 337 336 339 343 345 346 344 343 344 345 345 346 347 347 348 348
221 220 219 219 218 219 220 221 222 222 222 221 222 223 225 226 228 229 231 233 235 233 231 230 229 227 227 231 234 234 235 238 240 240 241 241 244 248 251 252 255 258 262 266 270 273 276 279 284 287 289 295 293 285 280 280 283 285 292 300 305 309 312 318 324 329 333 336 336 336 336 339 343 345 345 344 342 342 342 343 344 344 345 346 347
221 220 220 220 220 220 220 221 222 223 223 222 223 224 225 226 227 229 230 231 232 234 233 231 231 229 229 232 234 235 238 242 244 245 247 245 243 244 247 251 254 258 262 264 267 271 271 273 276 279 281 285 289 288 286 285 283 282 285 291 296 303 309 315 321 326 331 332 333 334 336 339 341 344 345 345 344 342 341 341 341 341 343 344 345
222 221 220 220 221 221 221 222 223 224 224 223 223 224 225 226 226 227 229 230 231 233 233 233 231 229 230 234 236 236 237 240 244 247 250 251 247 243 243 246 250 254 257 260 263 265 266 267 268 271 274 277 281 284 286 287 284 283 284 286 289 295 302 311 319 324 329 330 330 331 332 333 336 338 341 344 345 344 342 341 340 340 341 342 343
222 222 222 221 222 222 222 222 223 224 224 223 223 224 225 226 226 226 228 229 230 231 233 232 231 229 229 234 237 237 236 237 242 245 248 251 251 247 243 243 244 247 250 254 257 259 261 263 263 263 266 269 272 277 281 283 283 282 282 284 287 290 294 303 311 317 323 326 326 326 326 326 328 331 334 337 340 341 341 340 340 340 341 341 342
222 222 223 223 223 224 224 224 223 224 225 224 223 224 224 225 226 226 227 228 229 231 232 232 231 229 229 232 236 239 238 237 240 244 247 250 253 252 248 245 243 243 245 248 251 254 257 259 260 260 260 262 266 270 274 278 280 280 280 280 283 285 288 294 300 305 313 317 318 319 320 319 320 324 328 331 333 335 336 337 339 339 340 342 343
222 223 224 224 225 225 226 225 225 224 225 224 223 224 224 225 225 226 226 226 228 230 231 231 231 231 231 232 235 238 239 240 241 243 246 249 252 253 253 252 249 246 245 245 246 250 253 256 258 259 258 259 262 265 269 272 275 279 281 280 278 278 280 286 290 294 301 307 308 309 311 312 313 316 320 324 326 328 330 333 336 338 338 340 342
223 223 224 225 226 227 227 227 226 226 225 225 224 224 224 225 225 226 226 226 228 230 230 230 231 233 234 234 235 237 239 242 244 245 246 247 249 252 255 257 255 253 250 247 245 247 251 255 257 257 258 258 260 263 266 268 271 277 282 282 275 270 272 278 283 287 295 302 305 305 305 307 309 310 313 316 319 322 324 327 332 336 337 337 339
223 223 225 226 227 228 228 228 228 228 227 227 226 225 225 225 224 225 226 226 227 229 231 231 231 234 237 236 235 236 238 242 246 247 247 247 248 251 254 257 259 259 257 252 248 246 247 252 255 257 258 258 259 262 264 265 270 274 278 280 272 261 265 273 276 282 292 303 309 310 309 310 311 309 310 312 316 319 321 324 328 333 335 335 335
224 224 225 226 228 229 230 230 229 229 229 228 228 227 227 227 226 225 226 227 227 228 230 231 230 232 235 236 235 235 238 241 245 247 248 248 248 250 253 255 258 261 261 256 252 249 247 248 251 254 255 256 259 262 263 265 269 271 273 276 266 254 262 271 273 279 291 302 308 311 313 316 316 314 312 312 315 318 319 321 325 330 333 333 333
224 224 225 226 228 229 230 231 231 231 230 230 230 229 229 229 229 227 226 227 228 228 229 231 231 230 231 233 236 238 240 242 245 247 248 248 247 248 251 253 256 259 261 260 258 255 251 249 249 251 254 257 259 262 265 266 268 269 270 270 260 256 266 271 271 279 292 304 309 310 313 317 317 317 317 314 315 318 319 319 320 324 328 330 330
225 225 225 226 227 229 231 232 232 232 232 231 231 231 231 231 231 230 228 228 228 228 229 230 232 232 232 232 234 238 241 243 246 248 249 248 249 250 251 253 255 257 260 262 262 260 256 253 251 252 255 257 259 263 266 265 265 265 264 262 259 263 270 272 272 278 291 307 314 314 315 317 315 316 317 315 315 319 319 317 317 319 322 324 326
225 226 226 227 227 229 230 232 232 233 233 233 232 232 232 232 233 232 231 230 230 230 229 229 230 233 235 234 233 235 238 241 245 248 249 249 250 251 253 255 256 255 257 260 263 264 261 256 253 253 255 257 260 263 265 264 263 261 258 257 261 266 271 274 275 277 284 299 312 316 318 317 315 315 315 313 315 319 320 319 318 318 318 319 321
226 226 227 228 228 228 229 231 232 232 233 233 233 233 233 233 233 234 233 232 232 231 231 229 229 232 236 237 235 234 235 237 241 245 247 249 251 253 254 257 258 255 254 257 261 263 263 258 253 253 256 258 261 263 264 264 264 262 258 256 261 266 271 275 276 277 281 288 299 310 317 316 314 314 312 311 313 318 321 323 324 323 320 318 318
227 227 228 229 229 229 229 229 231 232 233 233 234 233 233 234 234 234 234 234 233 233 232 230 230 231 234 237 237 236 236 236 237 241 245 247 251 254 255 257 257 254 252 255 258 261 261 257 254 253 256 258 260 263 264 264 265 267 262 258 261 267 270 272 274 277 282 284 289 299 309 311 311 309 308 309 311 314 319 325 326 326 325 321 319
228 228 228 229 230 230 229 229 230 231 232 233 234 234 234 234 234 234 235 235 234 234 233 232 232 231 233 236 238 239 239 238 237 240 243 244 245 249 253 254 253 251 251 253 256 257 257 256 255 255 256 258 261 263 266 265 266 268 266 261 261 265 268 270 273 277 282 284 286 290 297 304 307 304 302 306 308 308 313 320 321 323 324 322 321
Height
10792 10793 10794 10795 10796 10798 10800 10802 10805 10808 10810 10813 10815 10817 10819 10821 10823 10824 10824 10825 10826 10826 10827 10827 10828 10829 10829 10827 10827 10828 10827 10826 10825 10824 10823 10821 10820 10819 10817 10815 10813 10811 10809 10807 10804 10801 10798 10796 10793 10791 10788 10784 10781 10778 10774 10771 10768 10764 10761 10757 10754 10750 10746 10743 10740 10737 10734 10731 10729 10727 10724 10722 10720 10719 10717 10716 10714 10713 10712 10710 10709 10707 10705 10703 10701
10789 10790 10791 10792 10792 10794 10796 10798 10801 10804 10806 10808 10811 10814 10816 10818 10820 10821 10822 10822 10823 10824 10824 10824 10826 10827 10827 10825 10824 10825 10825 10824 10823 10822 10821 10820 10818 10817 10815 10814 10812 10810 10807 10805 10802 10799 10797 10794 10792 10789 10786 10782 10779 10776 10773 10769 10766 10762 10759 10755 10752 10748 10744 10741 10738 10735 10732 10730 10727 10725 10723 10720 10719 10717 10716 10715 10714 10712 10711 10709 10707 10706 10704 10702 10699
10786 10788 10789 10789 10789 10790 10792 10794 10797 10800 10802 10805 10807 10810 10813 10815 10817 10818 10819 10820 10821 10821 10821 10822 10823 10824 10825 10824 10821 10822 10822 10822 10821 10820 10819 10818 10817 10815 10813 10812 10810 10808 10805 10803 10800 10797 10795 10792 10790 10787 10784 10781 10777 10774 10771 10767 10764 10761 10757 10754 10750 10746 10743 10739 10736 10733 10730 10728 10726 10723 10721 10719 10718 10716 10715 10714 10713 10711 10710 10708 10706 10705 10703 10701 10698
10783 10785 10786 10787 10787 10787 10789 10790 10793 10796 10798 10801 10804 10806 10809 10812 10814 10815 10816 10817 10818 10819 10819 10819 10820 10821 10823 10822 10820 10819 10819 10820 10819 10818 10818 10816 10815 10814 10811 10810 10808 10806 10804 10801 10798 10795 10793 10790 10788 10786 10782 10779 10776 10773 10769 10766 10762 10759 10756 10752 10748 10745 10741 10738 10735 10732 10729 10727 10724 10722 10720 10719 10717 10716 10715 10714 10712 10710 10709 10707 10706 10704 10702 10699 10696
10780 10781 10783 10784 10784 10785 10786 10787 10790 10792 10795 10797 10800 10803 10806 10808 10810 10812 10813 10815 10816 10816 10817 10817 10817 10818 10820 10820 10819 10818 10817 10817 10817 10816 10815 10814 10813 10812 10809 10808 10806 10804 10802 10800 10796 10793 10791 10789 10787 10784 10781 10777 10774 10771 10767 10764 10761 10758 10754 10751 10747 10743 10740 10736 10733 10730 10728 10726 10723 10721 10720 10718 10717 10716 10715 10713 10711 10710 10708 10706 10705 10703 10700 10698 10695
10776 10778 10779 10781 10782 10782 10783 10784 10787 10789 10791 10794 10796 10799 10802 10805 10807 10809 10810 10812 10814 10814 10815 10815 10815 10815 10817 10818 10818 10817 10815 10814 10814 10813 10813 10812 10811 10809 10808 10806 10804 10802 10800 10798 10794 10791 10789 10787 10785 10782 10779 10775 10772 10769 10766 10763 10760 10756 10753 10749 10745 10742 10738 10735 10732 10729 10727 10725 10723 10721 10719 10718 10717 10716 10715 10713 10711 10709 10708 10706 10704 10702 10699 10696 10693
10772 10774 10776 10778 10780 10780 10781 10782 10784 10787 10789 10791 10793 10796 10798 10801 10804 10805 10807 10809 10811 10812 10813 10813 10812 10812 10814 10816 10816 10816 10814 10812 10811 10810 10810 10810 10809 10808 10806 10804 10802 10800 10798 10795 10792 10790 10787 10785 10783 10780 10777 10774 10771 10768 10765 10761 10758 10755 10751 10747 10744 10740 10737 10734 10731 10729 10726 10724 10723 10721 10719 10718 10717 10716 10714 10712 10711 10709 10707 10705 10703 10701 10698 10695 10692
10766 10768 10771 10774 10777 10778 10780 10781 10782 10784 10786 10788 10791 10793 10795 10798 10800 10802 10804 10806 10808 10810 10811 10811 10811 10810 10811 10813 10814 10814 10813 10810 10808 10807 10807 10806 10806 10805 10803 10801 10800 10798 10796 10793 10790 10788 10786 10784 10782 10779 10775 10772 10769 10766 10763 10760 10757 10753 10749 10746 10742 10739 10736 10733 10730 10728 10726 10724 10722 10721 10720 10719 10717 10715 10714 10712 10711 10709 10707 10705 10702 10700 10697 10694 10691
10762 10763 10766 10769 10773 10776 10778 10779 10781 10782 10784 10787 10789 10790 10792 10794 10797 10800 10802 10804 10806 10807 10808 10809 10809 10808 10808 10809 10810 10811 10810 10808 10806 10805 10804 10803 10802 10802 10800 10798 10797 10796 10794 10791 10788 10786 10784 10782 10780 10777 10774 10770 10767 10764 10762 10759 10755 10752 10748 10744 10741 10737 10735 10732 10730 10728 10726 10724 10722 10721 10720 10719 10717 10715 10714 10712 10710 10708 10706 10704 10701 10699 10696 10693 10690
10761 10761 10762 10765 10768 10772 10775 10777 10779 10781 10783 10785 10786 10788 10790 10792 10794 10797 10799 10801 10803 10804 10806 10806 10807 10806 10806 10806 10806 10807 10807 10806 10805 10803 10802 10802 10800 10799 10797 10795 10794 10794 10791 10788 10786 10784 10782 10781 10778 10776 10772 10769 10766 10763 10761 10758 10754 10751 10746 10743 10739 10736 10734 10732 10730 10728 10726 10724 10723 10722 10720 10719 10717 10715 10714 10712 10710 10708 10705 10703 10700 10698 10695 10692 10689
10758 10760 10761 10762 10765 10768 10771 10774 10777 10779 10781 10783 10784 10786 10788 10790 10792 10794 10796 10798 10800 10802 10803 10804 10804 10804 10804 10803 10802 10803 10804 10804 10803 10801 10800 10800 10799 10798 10795 10792 10790 10790 10789 10786 10784 10782 10781 10779 10776 10774 10771 10768 10765 10762 10760 10757 10753 10749 10745 10741 10738 10736 10734 10732 10730 10728 10726 10725 10724 10722 10721 10719 10717 10716 10714 10712 10709 10707 10705 10702 10700 10697 10694 10691 10688
10754 10757 10759 10761 10763 10764 10766 10769 10773 10775 10778 10780 10782 10784 10786 10788 10790 10791 10793 10795 10797 10799 10801 10801 10802 10802 10802 10801 10800 10800 10800 10801 10801 10800 10798 10798 10797 10796 10794 10791 10788 10787 10786 10784 10782 10781 10779 10777 10774 10772 10770 10767 10764 10762 10759 10756 10753 10748 10744 10741 10738 10736 10734 10733 10731 10729 10727 10726 10724 10723 10721 10719 10718 10716 10714 10711 10709 10707 10704 10701 10699 10696 10693 10691 10687
10751 10754 10756 10759 10762 10763 10763 10764 10766 10769 10773 10776 10779 10782 10784 10786 10788 10789 10790 10792 10794 10796 10798 10799 10799 10799 10799 10799 10798 10797 10797 10798 10799 10798 10795 10794 10795 10794 10793 10791 10788 10785 10783 10782 10781 10779 10777 10775 10773 10771 10768 10766 10763 10761 10758 10755 10752 10747 10744 10741 10739 10737 10735 10734 10732 10730 10728 10727 10725 10724 10722 10720 10718 10716 10714 10711 10709 10706 10704 10701 10698 10695 10693 10690 10686
10748 10751 10754 10757 10760 10761 10761 10760 10760 10763 10768 10772 10776 10779 10782 10784 10785 10786 10787 10790 10791 10792 10795 10796 10796 10797 10797 10797 10796 10795 10794 10794 10795 10795 10793 10791 10791 10791 10790 10789 10788 10784 10782 10781 10780 10779 10776 10773 10771 10769 10767 10764 10762 10759 10757 10754 10751 10747 10744 10742 10740 10738 10736 10735 10733 10731 10729 10728 10726 10725 10723 10721 10719 10717 10714 10712 10709 10706 10703 10700 10698 10695 10692 10689 10686
10744 10747 10750 10753 10756 10759 10759 10759 10758 10759 10763 10767 10771 10775 10779 10781 10783 10784 10785 10787 10789 10789 10791 10793 10794 10794 10794 10794 10795 10794 10793 10792 10791 10791 10791 10789 10788 10787 10787 10787 10786 10783 10781 10780 10779 10778 10775 10772 10769 10767 10765 10763 10760 10758 10756 10753 10750 10747 10744 10742 10741 10739 10737 10735 10733 10731 10730 10729 10727 10726 10724 10722 10720 10717 10715 10712 10710 10707 10703 10700 10697 10695 10692 10688 10685
10740 10742 10746 10748 10752 10755 10756 10757 10757 10757 10760 10764 10767 10771 10775 10778 10780 10781 10782 10784 10786 10787 10789 10790 10791 10791 10792 10792 10792 10792 10791 10790 10789 10789 10788 10786 10784 10783 10783 10784 10783 10782 10780 10779 10778 10777 10774 10771 10768 10765 10763 10762 10759 10757 10755 10752 10749 10746 10745 10743 10741 10739 10738 10736 10734 10732 10731 10730 10728 10727 10725 10722 10720 10717 10715 10713 10710 10707 10703 10700 10697 10694 10691 10688 10684
10735 10738 10741 10743 10746 10750 10752 10754 10756 10756 10758 10762 10764 10767 10771 10774 10776 10778 10779 10781 10783 10784 10786 10787 10788 10789 10789 10790 10790 10789 10789 10788 10787 10786 10785 10784 10782 10780 10780 10781 10780 10780 10778 10777 10776 10775 10773 10770 10768 10765 10762 10760 10759 10756 10753 10751 10749 10746 10745 10743 10741 10740 10738 10736 10734 10733 10731 10730 10729 10727 10725 10722 10720 10718 10716 10713 10710 10707 10703 10700 10697 10694 10691 10687 10684
10731 10733 10735 10738 10740 10744 10748 10751 10753 10755 10757 10759 10761 10763 10766 10770 10772 10774 10776 10778 10779 10782 10783 10784 10785 10786 10786 10787 10787 10786 10786 10786 10785 10784 10783 10782 10780 10779 10778 10778 10777 10777 10776 10775 10774 10773 10771 10769 10767 10765 10762 10759 10758 10755 10753 10751 10748 10747 10745 10744 10742 10740 10738 10736 10735 10733 10732 10730 10729 10727 10725 10723 10720 10718 10716 10713 10710 10707 10704 10701 10697 10694 10691 10687 10684
10728 10729 10731 10733 10736 10739 10742 10746 10749 10752 10754 10756 10758 10760 10763 10766 10768 10770 10772 10774 10776 10779 10780 10781 10782 10783 10783 10783 10783 10783 10783 10782 10782 10781 10780 10779 10779 10778 10777 10776 10775 10774 10773 10773 10772 10771 10769 10768 10766 10764 10761 10759 10757 10755 10752 10750 10748 10746 10745 10743 10742 10740 10738 10736 10735 10733 10732 10730 10729 10727 10725 10722 10720 10718 10716 10713 10710 10707 10704 10701 10698 10694 10691 10688 10684
10723 10725 10728 10730 10733 10735 10738 10741 10744 10748 10751 10753 10755 10757 10760 10762 10765 10767 10769 10771 10773 10775 10777 10777 10779 10779 10779 10780 10780 10780 10780 10779 10779 10779 10778 10777 10777 10776 10776 10774 10773 10772 10771 10770 10770 10769 10768 10766 10765 10764 10761 10758 10756 10753 10751 10749 10748 10746 10744 10743 10741 10740 10738 10736 10735 10733 10732 10730 10728 10726 10724 10722 10720 10718 10716 10713 10710 10707 10704 10701 10698 10695 10691 10688 10685
10719 10721 10723 10726 10729 10732 10734 10738 10741 10744 10747 10749 10752 10754 10757 10759 10762 10764 10766 10768 10769 10771 10773 10774 10776 10777 10777 10777 10777 10778 10778 10777 10777 10777 10776 10775 10775 10774 10773 10772 10771 10770 10769 10768 10767 10767 10766 10765 10763 10762 10760 10758 10755 10752 10750 10748 10747 10745 10743 10742 10741 10739 10738 10737 10735 10733 10731 10730 10728 10726 10724 10722 10720 10718 10715 10713 10710 10707 10704 10701 10698 10695 10692 10688 10685
10715 10717 10719 10722 10724 10728 10731 10734 10738 10741 10743 10746 10749 10751 10754 10756 10759 10761 10763 10765 10766 10768 10770 10772 10774 10775 10775 10776 10776 10777 10777 10776 10776 10775 10775 10774 10773 10772 10771 10770 10769 10768 10768 10767 10766 10765 10765 10763 10762 10760 10759 10757 10754 10751 10750 10747 10746 10744 10743 10741 10740 10739 10738 10737 10735 10733 10731 10729 10727 10725 10723 10721 10719 10717 10715 10712 10710 10707 10704 10701 10698 10695 10692 10689 10685
10710 10713 10715 10717 10720 10724 10727 10731 10734 10738 10740 10743 10746 10749 10751 10754 10756 10758 10760 10762 10763 10765 10768 10770 10772 10773 10774 10774 10774 10775 10775 10775 10775 10774 10774 10773 10771 10770 10769 10768 10768 10767 10766 10765 10764 10764 10763 10762 10761 10758 10757 10756 10754 10751 10749 10747 10745 10744 10743 10741 10740 10739 10738 10736 10735 10733 10731 10728 10726 10724 10721 10719 10718 10716 10714 10712 10709 10706 10704 10701 10698 10695 10692 10689 10685
10705 10708 10710 10713 10715 10719 10722 10726 10730 10733 10738 10741 10743 10746 10750 10752 10754 10755 10757 10759 10761 10763 10766 10768 10769 10770 10771 10772 10772 10772 10773 10773 10773 10772 10772 10771 10770 10769 10768 10767 10766 10765 10764 10763 10762 10762 10761 10761 10760 10758 10756 10755 10754 10752 10749 10747 10745 10744 10743 10742 10740 10739 10738 10736 10735 10733 10730 10727 10725 10722 10720 10719 10717 10715 10713 10711 10708 10706 10703 10701 10698 10695 10692 10689 10685
10700 10703 10705 10707 10710 10713 10716 10720 10724 10729 10735 10739 10742 10744 10747 10749 10751 10752 10754 10756 10759 10760 10762 10763 10765 10766 10768 10768 10768 10769 10769 10770 10770 10770 10770 10769 10768 10767 10766 10765 10765 10764 10763 10762 10761 10761 10760 10760 10759 10757 10756 10754 10753 10752 10750 10747 10745 10744 10743 10742 10741 10739 10738 10736 10735 10733 10730 10726 10724 10722 10720 10718 10716 10715 10713 10710 10708 10705 10703 10701 10698 10695 10692 10688 10685
10694 10696 10698 10700 10703 10705 10709 10714 10719 10724 10729 10733 10735 10738 10741 10743 10745 10748 10750 10752 10754 10756 10757 10759 10760 10762 10763 10764 10764 10765 10766 10767 10767 10767 10767 10766 10765 10764 10764 10764 10763 10762 10761 10760 10760 10760 10759 10759 10758 10757 10755 10754 10753 10751 10749 10747 10745 10744 10743 10742 10741 10739 10738 10736 10734 10732 10729 10726 10723 10721 10719 10718 10716 10714 10712 10710 10707 10705 10703 10700 10698 10695 10692 10688 10684
10687 10690 10692 10695 10698 10701 10706 10711 10714 10719 10724 10726 10729 10733 10735 10738 10740 10743 10745 10746 10748 10750 10752 10755 10756 10757 10759 10759 10760 10761 10762 10763 10763 10764 10764 10764 10763 10762 10762 10761 10761 10760 10760 10759 10759 10759 10758 10758 10757 10756 10755 10754 10753 10751 10749 10747 10745 10744 10743 10742 10741 10739 10738 10736 10734 10731 10728 10725 10723 10721 10719 10718 10716 10714 10712 10709 10707 10704 10702 10700 10697 10695 10691 10688 10684
10679 10683 10686 10691 10695 10699 10704 10708 10711 10717 10720 10722 10726 10728 10730 10733 10735 10737 10739 10741 10744 10746 10748 10751 10752 10753 10754 10755 10755 10756 10757 10758 10759 10761 10761 10761 10760 10760 10760 10760 10759 10759 10758 10757 10757 10757 10757 10757 10756 10755 10754 10754 10753 10751 10749 10747 10745 10744 10743 10743 10741 10739 10738 10736 10734 10731 10728 10725 10723 10721 10719 10718 10716 10714 10712 10709 10706 10704 10702 10700 10697 10694 10691 10688 10684
10671 10675 10680 10685 10690 10695 10699 10702 10707 10712 10714 10717 10719 10719 10722 10726 10729 10731 10734 10737 10740 10743 10745 10747 10749 10750 10751 10751 10752 10752 10753 10754 10756 10757 10758 10758 10758 10758 10757 10757 10757 10757 10756 10755 10755 10755 10755 10755 10755 10754 10753 10752 10752 10751 10749 10747 10746 10745 10744 10743 10741 10739 10738 10736 10734 10731 10728 10725 10723 10721 10720 10718 10716 10714 10712 10709 10707 10704 10702 10699 10697 10694 10690 10687 10683
10664 10670 10674 10679 10684 10689 10693 10697 10702 10706 10708 10711 10711 10712 10716 10721 10724 10727 10730 10733 10736 10738 10740 10742 10745 10747 10748 10749 10749 10750 10750 10751 10753 10753 10754 10755 10755 10755 10755 10755 10755 10755 10755 10754 10754 10753 10753 10754 10753 10753 10752 10751 10751 10750 10748 10747 10745 10744 10744 10742 10741 10739 10737 10736 10734 10731 10728 10726 10724 10722 10720 10718 10716 10714 10712 10709 10707 10704 10702 10699 10696 10693 10690 10687 10683
10660 10665 10669 10674 10679 10684 10688 10693 10697 10701 10703 10705 10707 10710 10714 10717 10720 10723 10726 10728 10731 10732 10734 10737 10739 10742 10744 10745 10746 10747 10748 10749 10749 10749 10750 10751 10752 10753 10753 10753 10752 10752 10753 10753 10752 10752 10752 10752 10752 10752 10751 10750 10749 10748 10747 10745 10744 10743 10743 10741 10739 10738 10736 10735 10733 10731 10728 10726 10724 10722 10720 10718 10716 10714 10712 10709 10706 10704 10702 10699 10696 10693 10690 10686 10683
10653 10658 10663 10668 10673 10678 10683 10688 10691 10695 10698 10700 10703 10706 10709 10713 10716 10718 10721 10724 10726 10727 10729 10732 10734 10736 10738 10739 10741 10743 10744 10745 10746 10746 10746 10748 10749 10750 10750 10750 10750 10750 10751 10751 10751 10751 10750 10750 10750 10750 10750 10748 10747 10747 10745 10744 10743 10742 10741 10739 10738 10737 10735 10734 10732 10730 10728 10726 10725 10723 10720 10718 10716 10714 10711 10709 10706 10704 10701 10698 10696 10693 10689 10686 10682
10644 10649 10654 10660 10666 10671 10677 10681 10684 10688 10691 10694 10698 10701 10704 10707 10711 10713 10717 10720 10721 10722 10724 10727 10729 10731 10733 10734 10736 10738 10740 10741 10742 10742 10742 10744 10745 10747 10748 10748 10748 10748 10748 10748 10748 10748 10748 10748 10748 10749 10749 10747 10746 10745 10744 10743 10742 10740 10739 10738 10736 10735 10734 10732 10731 10729 10727 10726 10724 10723 10721 10718 10716 10713 10711 10709 10706 10703 10701 10698 10695 10692 10689 10685 10682
10636 10641 10646 10652 10658 10664 10669 10671 10673 10678 10683 10688 10692 10696 10698 10702 10705 10708 10713 10715 10715 10716 10719 10721 10724 10726 10729 10730 10731 10734 10736 10737 10737 10738 10739 10740 10742 10743 10744 10745 10746 10746 10746 10746 10746 10745 10745 10746 10746 10746 10747 10746 10745 10744 10743 10742 10740 10738 10737 10736 10735 10734 10733 10731 10729 10728 10726 10725 10724 10722 10720 10718 10716 10713 10711 10708 10706 10703 10701 10698 10695 10692 10688 10685 10681
10629 10633 10638 10644 10651 10656 10658 10659 10663 10669 10673 10678 10683 10687 10690 10695 10699 10703 10708 10710 10710 10711 10713 10715 10717 10721 10724 10726 10727 10730 10732 10733 10733 10734 10735 10736 10738 10739 10740 10741 10742 10743 10743 10743 10743 10743 10743 10743 10743 10743 10744 10744 10744 10743 10742 10740 10739 10737 10735 10734 10733 10732 10731 10729 10728 10726 10725 10723 10722 10721 10719 10717 10715 10713 10711 10708 10706 10703 10700 10697 10694 10691 10688 10684 10681
10623 10627 10632 10636 10642 10647 10649 10652 10657 10661 10663 10667 10673 10677 10682 10687 10691 10696 10700 10704 10705 10707 10709 10710 10712 10715 10719 10721 10723 10725 10728 10729 10729 10730 10731 10732 10733 10734 10736 10737 10738 10739 10740 10740 10740 10741 10740 10740 10740 10741 10741 10741 10742 10742 10741 10739 10737 10736 10734 10733 10731 10730 10729 10727 10726 10725 10723 10722 10720 10719 10717 10716 10714 10712 10710 10707 10705 10702 10699 10696 10694 10690 10687 10684 10680
10618 10622 10626 10630 10634 10639 10642 10645 10650 10654 10658 10663 10668 10672 10675 10679 10683 10688 10693 10697 10699 10701 10704 10705 10708 10711 10713 10715 10717 10720 10723 10725 10725 10726 10726 10727 10728 10730 10731 10732 10733 10735 10736 10737 10737 10738 10738 10738 10738 10738 10738 10738 10738 10738 10739 10738 10736 10735 10733 10731 10729 10728 10727 10726 10724 10723 10722 10720 10718 10717 10715 10714 10712 10711 10709 10706 10704 10701 10698 10696 10693 10690 10687 10683 10680
10611 10615 10618 10623 10627 10631 10635 10639 10644 10648 10653 10658 10663 10667 10670 10673 10677 10683 10688 10692 10694 10696 10699 10701 10703 10706 10708 10709 10711 10715 10718 10720 10720 10721 10722 10723 10724 10725 10726 10727 10729 10730 10732 10733 10733 10734 10735 10735 10735 10735 10735 10736 10735 10735 10735 10735 10734 10732 10731 10730 10728 10726 10725 10724 10722 10721 10720 10718 10716 10715 10713 10712 10710 10708 10707 10704 10702 10700 10697 10695 10692 10689 10686 10683 10679
10603 10606 10610 10614 10618 10622 10627 10632 10637 10642 10646 10652 10657 10660 10663 10667 10672 10678 10682 10685 10688 10690 10693 10696 10698 10700 10702 10704 10706 10710 10713 10714 10715 10716 10717 10719 10720 10721 10721 10722 10724 10726 10727 10728 10729 10730 10730 10731 10732 10732 10732 10732 10732 10731 10731 10731 10731 10729 10728 10727 10726 10725 10723 10722 10720 10719 10718 10716 10715 10713 10711 10710 10708 10706 10704 10702 10700 10698 10696 10694 10691 10688 10685 10682 10679
10595 10598 10602 10606 10610 10614 10619 10625 10630 10635 10640 10645 10650 10653 10656 10661 10665 10670 10674 10677 10680 10683 10686 10689 10692 10694 10696 10697 10700 10704 10707 10709 10709 10710 10712 10714 10716 10717 10717 10717 10719 10720 10721 10722 10724 10725 10726 10726 10727 10727 10728 10728 10728 10728 10727 10727 10727 10727 10725 10724 10723 10722 10722 10721 10719 10717 10716 10715 10713 10711 10709 10707 10706 10704 10702 10700 10698 10697 10695 10692 10690 10687 10684 10681 10678
10586 10590 10594 10599 10604 10608 10612 10617 10622 10627 10632 10637 10642 10645 10649 10654 10658 10663 10666 10669 10672 10676 10679 10682 10686 10688 10689 10691 10694 10697 10700 10702 10702 10704 10707 10710 10712 10712 10712 10713 10714 10715 10716 10717 10719 10720 10721 10721 10722 10723 10724 10724 10723 10724 10723 10723 10723 10723 10722 10720 10720 10719 10719 10719 10717 10716 10714 10713 10711 10709 10707 10705 10703 10701 10699 10698 10696 10694 10693 10691 10689 10686 10683 10680 10677
10576 10580 10585 10591 10595 10600 10604 10609 10614 10619 10624 10628 10633 10637 10642 10646 10651 10655 10659 10662 10664 10668 10672 10675 10679 10682 10683 10685 10688 10690 10693 10694 10696 10699 10701 10704 10706 10706 10706 10708 10710 10711 10711 10712 10713 10715 10715 10716 10716 10718 10719 10719 10719 10719 10719 10719 10719 10719 10718 10717 10716 10716 10716 10716 10715 10714 10712 10710 10709 10707 10705 10703 10701 10699 10697 10695 10693 10692 10690 10689 10687 10684 10681 10679 10676
10567 10572 10577 10581 10586 10590 10595 10600 10606 10612 10616 10620 10624 10629 10633 10638 10643 10648 10652 10655 10657 10660 10664 10668 10672 10674 10676 10679 10681 10683 10686 10688 10690 10692 10695 10698 10700 10700 10701 10702 10705 10706 10707 10708 10708 10709 10710 10711 10712 10713 10714 10714 10713 10714 10715 10715 10715 10715 10714 10713 10712 10712 10712 10712 10711 10710 10709 10707 10706 10704 10702 10701 10699 10697 10695 10694 10692 10689 10688 10686 10684 10682 10680 10677 10674
10558 10563 10568 10573 10577 10581 10586 10591 10597 10603 10609 10613 10616 10621 10625 10630 10635 10640 10643 10647 10650 10654 10658 10661 10664 10667 10670 10672 10674 10677 10680 10682 10683 10685 10689 10692 10694 10694 10695 10697 10699 10701 10703 10703 10703 10704 10705 10706 10707 10708 10709 10708 10708 10710 10710 10710 10711 10711 10710 10709 10708 10708 10708 10707 10707 10706 10705 10703 10702 10701 10699 10698 10697 10695 10694 10692 10690 10687 10685 10683 10682 10680 10678 10675 10673
10548 10553 10559 10564 10568 10571 10576 10582 10587 10593 10599 10604 10608 10613 10617 10621 10624 10629 10633 10637 10642 10646 10650 10653 10656 10659 10662 10665 10668 10671 10674 10676 10677 10679 10682 10685 10687 10688 10689 10691 10694 10696 10697 10698 10698 10699 10700 10701 10702 10703 10703 10702 10703 10704 10705 10707 10708 10707 10705 10705 10704 10704 10704 10703 10703 10702 10701 10700 10698 10697 10696 10695 10694 10692 10691 10689 10687 10685 10683 10680 10679 10677 10676 10674 10672
10538 10543 10549 10554 10558 10561 10566 10572 10578 10583 10588 10594 10600 10605 10608 10610 10613 10619 10624 10627 10632 10638 10643 10646 10649 10651 10655 10658 10662 10665 10668 10670 10671 10673 10675 10677 10679 10681 10683 10686 10688 10690 10692 10693 10694 10694 10695 10696 10697 10697 10696 10697 10699 10699 10700 10704 10704 10702 10701 10701 10701 10700 10700 10699 10699 10698 10698 10697 10695 10693 10692 10691 10690 10688 10687 10685 10684 10683 10681 10679 10676 10675 10674 10673 10671
10528 10532 10538 10543 10548 10552 10556 10562 10569 10574 10577 10583 10590 10596 10598 10599 10602 10608 10614 10619 10623 10628 10635 10639 10642 10645 10648 10651 10654 10657 10661 10664 10667 10669 10669 10670 10672 10674 10676 10680 10683 10685 10687 10689 10689 10689 10690 10691 10692 10692 10691 10692 10694 10695 10697 10700 10700 10698 10696 10697 10697 10697 10695 10695 10695 10694 10694 10693 10692 10690 10689 10688 10686 10684 10683 10682 10680 10679 10678 10677 10675 10673 10672 10670 10669
10516 10521 10526 10532 10537 10541 10546 10552 10559 10564 10567 10572 10579 10584 10586 10588 10591 10597 10605 10611 10614 10619 10627 10632 10634 10637 10639 10641 10645 10649 10653 10658 10662 10664 10664 10663 10666 10668 10671 10674 10677 10680 10682 10683 10683 10684 10685 10686 10686 10686 10685 10687 10689 10691 10693 10695 10696 10694 10693 10693 10693 10691 10691 10691 10690 10690 10690 10690 10688 10687 10686 10684 10683 10681 10680 10678 10676 10675 10675 10674 10672 10671 10670 10668 10666
10502 10508 10513 10519 10525 10530 10535 10540 10546 10552 10555 10559 10565 10570 10573 10576 10581 10588 10595 10601 10606 10612 10619 10623 10626 10629 10631 10632 10636 10641 10646 10651 10654 10655 10657 10658 10660 10663 10665 10668 10671 10675 10677 10677 10677 10678 10679 10679 10680 10680 10680 10681 10684 10686 10688 10690 10690 10690 10690 10690 10688 10686 10687 10687 10685 10685 10686 10685 10684 10685 10683 10681 10680 10679 10676 10675 10673 10672 10672 10671 10670 10669 10668 10666 10664
10489 10495 10500 10505 10511 10518 10523 10527 10533 10538 10542 10546 10552 10558 10561 10565 10572 10580 10586 10591 10598 10604 10609 10613 10617 10621 10623 10624 10627 10633 10638 10641 10643 10644 10647 10651 10653 10656 10658 10660 10665 10670 10671 10669 10671 10673 10673 10673 10674 10675 10675 10676 10679 10681 10683 10685 10685 10687 10688 10686 10683 10683 10684 10683 10680 10681 10682 10680 10679 10681 10681 10678 10677 10676 10673 10671 10670 10669 10669 10668 10667 10666 10665 10664 10662
10477 10483 10488 10493 10498 10505 10510 10515 10521 10526 10530 10535 10540 10545 10549 10554 10562 10569 10575 10581 10588 10593 10598 10602 10607 10612 10615 10616 10619 10624 10628 10631 10633 10635 10637 10640 10645 10649 10650 10653 10658 10663 10663 10661 10664 10667 10667 10667 10669 10670 10670 10671 10673 10676 10679 10680 10681 10683 10684 10682 10680 10680 10679 10677 10675 10676 10677 10674 10673 10677 10678 10675 10674 10673 10670 10668 10667 10665 10665 10665 10663 10662 10662 10661 10659